EW1179 Weather Reports


Display with metric or nautical units.
time (UTC)temp
F
wind
direction
speed
MPH
gust
MPH
rain 1hr
in
rain 24hr
in
rain mn
in
humidity
%
barometer
mb
20260507043057 60 238 0.0 0.0 0.00 0.00 0.00 71 1015.9
20260507041557 61 289 0.0 0.0 0.00 0.00 0.00 69 1015.8
20260507040057 62 250 0.0 0.0 0.00 0.00 0.00 68 1015.5
20260507034602 62 199 0.0 0.0 0.00 0.00 0.00 67 1015.4
20260507033056 63 316 0.0 0.0 0.00 0.00 0.00 65 1015.3
20260507031555 64 201 0.0 0.0 0.00 0.00 0.00 64 1015.3
20260507030106 64 44 0.0 0.0 0.00 0.00 0.00 63 1015.0
20260507024600 65 49 0.0 0.0 0.00 0.00 0.00 63 1014.7
20260507023054 65 78 0.0 0.0 0.00 0.00 0.00 62 1014.6
20260507021614 66 55 0.0 0.0 0.00 0.00 0.00 61 1014.5
20260507020104 66 217 0.0 2.0 0.00 0.00 0.00 60 1014.4
20260507014611 67 254 0.0 3.0 0.00 0.00 0.00 59 1014.3
20260507013055 67 201 0.0 7.0 0.00 0.00 0.00 59 1014.3
20260507011552 68 217 0.0 8.0 0.00 0.00 0.00 57 1014.2
20260507004550 70 238 0.0 7.0 0.00 0.00 0.00 55 1014.2
20260507003049 70 234 0.0 6.0 0.00 0.00 0.00 55 1014.0
20260507001552 71 289 0.0 6.0 0.00 0.00 0.00 55 1014.0
20260507000049 72 235 0.0 6.0 0.00 0.00 0.00 55 1013.9
20260506234548 73 235 0.0 8.0 0.00 0.00 0.00 53 1013.9
20260506233052 73 198 0.0 12.0 0.00 0.00 0.00 52 1014.0
20260506231546 74 213 0.0 3.0 0.00 0.00 0.00 52 1014.0
20260506230045 75 244 0.0 7.0 0.00 0.00 0.00 52 1014.2
20260506224543 75 187 0.0 2.0 0.00 0.00 0.00 52 1014.4
20260506223040 75 211 0.0 6.0 0.00 0.00 0.00 53 1014.6
20260506221539 75 185 1.0 7.0 0.00 0.00 0.00 51 1014.9
20260506220039 75 235 1.0 9.0 0.00 0.00 0.00 52 1015.0
20260506214537 76 267 1.0 12.0 0.00 0.00 0.00 51 1015.1
20260506213035 76 211 1.0 6.0 0.00 0.00 0.00 49 1015.2
20260506211533 76 297 0.0 5.0 0.00 0.00 0.00 50 1015.4
20260506210033 77 274 1.0 7.0 0.00 0.00 0.00 49 1015.5
20260506204531 76 201 0.0 4.0 0.00 0.00 0.00 49 1015.6
20260506203030 77 230 1.0 9.0 0.00 0.00 0.00 48 1015.7
20260506201540 77 207 0.0 1.0 0.00 0.00 0.00 45 1015.8
20260506200027 76 160 0.0 2.0 0.00 0.00 0.00 45 1016.0
20260506194521 75 243 0.0 0.0 0.00 0.00 0.00 48 1016.2
20260506193017 74 100 0.0 2.0 0.00 0.00 0.00 49 1016.4
20260506191513 73 128 0.0 0.0 0.00 0.00 0.00 50 1016.6
20260506190008 72 283 0.0 3.0 0.00 0.00 0.00 53 1016.7
20260506184504 71 174 0.0 1.0 0.00 0.00 0.00 57 1017.0
20260506183001 70 245 0.0 2.0 0.00 0.00 0.00 58 1017.1
20260506181557 69 171 0.0 0.0 0.00 0.00 0.00 60 1017.3
20260506180054 68 60 0.0 0.0 0.00 0.00 0.00 62 1017.3
20260506174549 67 217 0.0 1.0 0.00 0.00 0.00 64 1017.5
20260506173100 66 75 0.0 0.0 0.00 0.00 0.00 67 1017.6
20260506171551 64 43 0.0 0.0 0.00 0.00 0.00 70 1017.7
20260506170036 62 98 0.0 0.0 0.00 0.00 0.00 74 1017.8
20260506164532 59 102 0.0 2.0 0.00 0.00 0.00 81 1018.1
20260506163038 57 19 0.0 1.0 0.00 0.00 0.00 87 1018.0
20260506161523 55 51 0.0 0.0 0.00 0.00 0.00 92 1018.2
20260506160022 53 59 0.0 0.0 0.00 0.00 0.00 93 1018.3
20260506154517 51 104 0.0 0.0 0.00 0.00 0.00 93 1018.5
20260506153010 50 103 0.0 0.0 0.00 0.00 0.00 93 1018.5
20260506151509 49 325 0.0 0.0 0.00 0.00 0.00 93 1018.6
20260506150007 49 27 0.0 0.0 0.00 0.00 0.00 93 1018.7
20260506144503 48 238 0.0 0.0 0.00 0.00 0.00 93 1018.6
20260506143100 47 32 0.0 0.0 0.00 0.00 0.00 93 1018.5
20260506141558 46 80 0.0 0.0 0.00 0.00 0.00 93 1018.3
20260506140101 45 294 0.0 0.0 0.00 0.00 0.00 92 1018.2
20260506134551 44 294 0.0 0.0 0.00 0.00 0.00 92 1018.0
20260506133051 43 294 0.0 0.0 0.00 0.00 0.00 91 1017.8
20260506131546 43 294 0.0 0.0 0.00 0.00 0.00 91 1017.8
20260506130049 43 294 0.0 0.0 0.00 0.00 0.00 91 1017.7
20260506124544 43 294 0.0 0.0 0.00 0.00 0.00 90 1017.5
20260506123043 43 294 0.0 0.0 0.00 0.00 0.00 90 1017.4
20260506121540 43 294 0.0 0.0 0.00 0.00 0.00 90 1017.3
20260506120039 43 294 0.0 0.0 0.00 0.00 0.00 90 1017.2
20260506114540 44 294 0.0 0.0 0.00 0.00 0.00 90 1017.0
20260506113037 44 294 0.0 0.0 0.00 0.00 0.00 90 1017.1
20260506111541 44 294 0.0 0.0 0.00 0.00 0.00 90 1017.2
20260506110036 44 294 0.0 0.0 0.00 0.00 0.00 90 1017.1
20260506104541 44 294 0.0 0.0 0.00 0.00 0.00 90 1017.1
20260506103034 44 294 0.0 0.0 0.00 0.00 0.00 89 1017.1
20260506101536 44 294 0.0 0.0 0.00 0.00 0.00 89 1017.1
20260506100030 44 294 0.0 0.0 0.00 0.00 0.00 89 1017.0
20260506094529 44 294 0.0 0.0 0.00 0.00 0.00 89 1016.9
20260506093045 45 294 0.0 0.0 0.00 0.00 0.00 89 1016.8
20260506091526 45 294 0.0 0.0 0.00 0.00 0.00 88 1016.8
20260506090025 45 294 0.0 0.0 0.00 0.00 0.00 88 1016.9
20260506084525 45 294 0.0 0.0 0.00 0.00 0.00 88 1016.9
20260506083023 45 294 0.0 0.0 0.00 0.00 0.00 88 1016.9
20260506081521 46 294 0.0 0.0 0.00 0.00 0.00 87 1016.8
20260506073015 47 294 0.0 0.0 0.00 0.00 0.00 86 1016.7
20260506071512 47 294 0.0 0.0 0.00 0.00 0.00 86 1016.5
20260506061508 49 294 0.0 0.0 0.00 0.00 0.00 84 1015.8
20260506044613 53 240 0.0 0.0 0.00 0.00 0.00 81 1015.1